Location: Unspecified
(56.5167°N, 0.0000°E)
Time: 09:19:37
(UTC+01:00)

Cosmos 2058 - Pass Details

Date: 05 October 2022
Orbit: 557 x 580 km, 82.5° (Epoch: 02 December)

Event Time Altitude Azimuth Distance (km) Brightness Sun altitude
Rises 23:41:56 0° 351° (N) 2,815 7.3 -32.7°
Reaches altitude 10° 23:44:16 10° 359° (N) 1,908 6.1 -32.9°
Enters shadow 23:45:08 15° 5° (N) 1,592 5.6 -33.0°
